Weather observations for the past three days for
Saginaw County H W Browne Airport
Imperial (Metric)
Date Time (edt) Wind (mph) Vis. (mi.) Weather Sky Cond. Temperature (ºF) Relative Humidity Wind Chill (°F) Heat Index (°F) Pressure Precipitation (in)
Air Dwpt 6 hour altimeter (in) sea level (mb) 1 hr 3 hr 6 hr
Max. Min.
17 23:15 NW 10 10.00 Fair CLR 62.6 53.6 73% 30.01 0.0
17 22:55 NW 13 10.00 Fair CLR 62.6 53.6 73% 30.01 0.0
17 22:35 NW 10 10.00 Fair CLR 64.4 53.6 68% 30 0.0
17 22:15 NW 12 10.00 Fair CLR 64.4 53.6 68% 30 0.0
17 21:55 NW 12 10.00 Fair CLR 64.4 53.6 68% 29.99 0.0
17 21:35 NW 10 10.00 Fair CLR 66.2 51.8 60% 29.98 0.0
17 21:15 NW 14 10.00 Fair CLR 68 53.6 60% 29.97 0.0
17 20:55 NW 12 10.00 Fair CLR 69.8 53.6 57% 29.96 0.0
17 20:35 NW 10 10.00 A Few Clouds FEW060 FEW070 69.8 53.6 57% 29.96 0.0
17 20:15 NW 14 G 20 10.00 Fair CLR 71.6 53.6 53% 29.95 0.0
17 19:55 NW 13 10.00 Fair CLR 71.6 53.6 81.1 72.7 53% 29.94 0.0
17 19:35 NW 14 10.00 A Few Clouds FEW075 73.4 53.6 50% 29.93 0.0
17 19:15 NW 13 G 21 10.00 Mostly Cloudy SCT060 BKN075 75.2 55.4 50% 78 29.92 0.0
17 18:55 N 13 10.00 Mostly Cloudy SCT055 BKN075 BKN090 73.4 53.6 50% 29.91 0.0
17 18:35 N 9 10.00 Mostly Cloudy FEW050 SCT065 BKN085 73.4 57.2 57% 29.91 0.0
17 18:15 NW 10 10.00 Partly Cloudy FEW050 SCT070 SCT090 75.2 57.2 54% 78 29.9 0.0
17 17:55 NW 13 10.00 Mostly Cloudy BKN050 BKN065 BKN090 75.2 57.2 54% 78 29.9 0.0
17 17:35 N 9 10.00 A Few Clouds FEW065 77 60.8 57% 79 29.9 0.0
17 17:15 NW 13 10.00 Fair CLR 77 59 54% 79 29.9 0.0
17 16:55 NW 17 G 22 10.00 Partly Cloudy FEW048 SCT055 77 60.8 57% 79 29.89 0.0
17 16:35 N 13 10.00 Mostly Cloudy BKN050 BKN060 77 60.8 57% 79 29.89 0.0
17 16:15 NW 17 10.00 Partly Cloudy SCT050 SCT060 78.8 59 51% 80 29.89 0.0
17 15:55 NW 15 G 18 10.00 Fair CLR 78.8 60.8 54% 80 29.88 0.0
17 15:35 N 13 10.00 Partly Cloudy FEW060 SCT075 SCT090 78.8 59 51% 80 29.88 0.0
17 15:15 N 12 10.00 A Few Clouds FEW060 FEW075 78.8 60.8 54% 80 29.88 0.0
17 14:55 N 14 G 22 10.00 A Few Clouds FEW060 77 62.6 61% 79 29.88 0.0
17 14:35 NW 22 G 26 10.00 Partly Cloudy and Breezy FEW060 SCT075 SCT085 80.6 57.2 45% 81 29.88 0.0
17 14:15 NW 16 10.00 Partly Cloudy FEW060 SCT075 78.8 60.8 54% 80 29.87 0.0
17 13:55 W 14 10.00 A Few Clouds FEW050 80.6 59 80.8 67.1 48% 81 29.87 0.0
17 13:35 W 12 10.00 Fair CLR 80.6 60.8 51% 81 29.87 0.0
17 13:15 W 12 10.00 Partly Cloudy SCT043 SCT050 SCT060 78.8 60.8 54% 80 29.87 0.0
17 12:55 NW 7 10.00 Mostly Cloudy SCT043 SCT050 BKN065 77 59 54% 79 29.88 0.0
17 12:35 Vrbl 6 10.00 Partly Cloudy FEW038 SCT050 77 60.8 57% 79 29.88 0.0
17 12:15 NW 7 10.00 Mostly Cloudy SCT040 BKN055 77 62.6 61% 79 29.88 0.0
17 11:55 W 7 10.00 Mostly Cloudy BKN042 BKN048 BKN070 77 62.6 61% 79 29.88 0.0
17 11:35 W 7 10.00 Mostly Cloudy BKN044 BKN050 77 60.8 57% 79 29.88 0.0
17 11:15 SW 6 10.00 Fair CLR 77 60.8 57% 79 29.88 0.0
17 10:55 W 5 10.00 Fair CLR 75.2 60.8 61% 77 29.88 0.0
17 10:35 Vrbl 2 10.00 A Few Clouds FEW100 75.2 62.6 65% 77 29.88 0.0
17 10:15 Vrbl 2 10.00 Partly Cloudy SCT100 73.4 60.8 65% 29.88 0.0
17 09:55 W 3 10.00 Fair CLR 73.4 62.6 69% 29.88 0.0
17 09:35 NW 3 10.00 Partly Cloudy SCT100 71.6 64.4 78% 29.89 0.0
17 09:15 NW 5 10.00 Mostly Cloudy BKN100 69.8 62.6 78% 29.89 0.0
17 08:35 W 5 10.00 Mostly Cloudy FEW080 BKN120 69.8 62.6 78% 29.89 0.0
17 08:15 W 6 10.00 Mostly Cloudy FEW080 BKN120 68 62.6 83% 29.89 0.0
17 07:55 W 5 10.00 Mostly Cloudy BKN120 68 62.6 67.1 62.1 83% 29.88 0.0
17 07:35 W 2 10.00 Mostly Cloudy SCT060 BKN120 66.2 62.6 88% 29.88 0.0
17 07:15 W 5 10.00 A Few Clouds FEW060 FEW110 64.4 62.6 94% 29.88 0.0
17 06:55 SW 3 10.00 Mostly Cloudy BKN070 62.6 60.8 94% 29.87 0.0
17 06:35 SW 3 10.00 Mostly Cloudy BKN070 62.6 60.8 94% 29.87 0.0
17 06:15 SW 3 10.00 Partly Cloudy SCT070 62.6 60.8 94% 29.87 0.0
17 05:55 SW 3 10.00 Fair CLR 62.6 60.8 94% 29.86 0.0
17 05:35 SW 1 10.00 Fair CLR 64.4 60.8 88% 29.85 0.0
17 05:15 W 2 10.00 Fair CLR 64.4 60.8 88% 29.85 0.0
17 04:55 W 3 10.00 A Few Clouds FEW120 64.4 60.8 88% 29.85 0.0
17 04:35 W 3 10.00 Fair CLR 64.4 60.8 88% 29.84 0.0
17 04:15 W 5 10.00 Fair CLR 64.4 60.8 88% 29.83 0.0
17 03:55 W 5 10.00 Fair CLR 64.4 60.8 88% 29.83 0.0
17 03:35 W 5 10.00 Fair CLR 64.4 62.6 94% 29.83 0.0
17 03:15 W 5 10.00 Fair CLR 64.4 60.8 88% 29.83 0.0
17 02:55 W 5 10.00 Fair CLR 64.4 62.6 94% 29.83 0.0
17 02:35 W 5 10.00 Fair CLR 64.4 62.6 94% 29.84 0.0
17 02:15 W 5 10.00 Fair CLR 66.2 62.6 88% 29.84 0.0
17 01:55 W 3 10.00 Fair CLR 66.2 62.6 79.2 65.1 88% 29.84 0.0
17 01:35 NW 6 10.00 Fair CLR 66.2 60.8 83% 29.84 0.0
17 01:15 NW 5 10.00 Fair CLR 66.2 62.6 88% 29.83 0.0
17 00:55 NW 6 10.00 Fair CLR 66.2 62.6 88% 29.83 0.0
17 00:35 NW 7 10.00 Fair CLR 68 62.6 83% 29.83 0.0
17 00:15 NW 5 10.00 Fair CLR 68 62.6 83% 29.83 0.0
16 23:55 NW 5 10.00 Fair CLR 68 62.6 83% 29.82 0.0
16 23:35 NW 6 10.00 Fair CLR 69.8 62.6 78% 29.82 0.0
16 23:15 NW 7 10.00 Fair CLR 69.8 62.6 78% 29.81 0.0
16 22:55 NW 8 10.00 Fair CLR 71.6 62.6 73% 29.81 0.0
16 22:35 W 9 10.00 Fair CLR 71.6 62.6 73% 29.8 0.0
16 22:15 W 7 10.00 Fair CLR 71.6 62.6 73% 29.8 0.0
16 21:55 W 7 10.00 Fair CLR 71.6 62.6 73% 29.8 0.0
16 21:35 W 7 10.00 Fair CLR 73.4 64.4 74% 29.79 0.0
16 21:15 W 7 10.00 A Few Clouds FEW070 75.2 64.4 69% 77 29.79 0.0
16 20:55 W 8 10.00 Mostly Cloudy BKN070 77 64.4 65% 79 29.78 0.0
16 20:35 W 8 10.00 Overcast OVC070 78.8 64.4 61% 81 29.77 0.0
16 20:15 W 8 10.00 Overcast OVC070 78.8 66.2 65% 81 29.77 0.0
16 19:55 W 9 10.00 Mostly Cloudy BKN070 78.8 64.4 82.8 73.4 61% 81 29.77 0.0 0.01
16 19:35 W 14 10.00 A Few Clouds FEW070 78.8 68 70% 81 29.75 0.0
16 19:15 S 6 10.00 Overcast SCT043 BKN050 OVC070 78.8 69.8 74% 81 29.75 0.0
16 18:55 SW 12 G 16 10.00 Mostly Cloudy SCT037 SCT043 BKN050 78.8 68 70% 81 29.76 0.0
16 18:35 W 12 10.00 Partly Cloudy FEW037 SCT050 82.4 68 62% 85 29.76 0.0
16 18:15 W 10 G 16 10.00 Partly Cloudy FEW035 FEW050 SCT090 82.4 69.8 66% 86 29.75 0.0
16 17:55 W 12 10.00 Mostly Cloudy SCT034 BKN045 BKN085 82.4 69.8 66% 86 29.75 0.0 0.01
16 17:35 W 13 10.00 Overcast BKN029 BKN037 OVC085 80.6 69.8 70% 84 29.75 0.0
16 17:15 W 10 10.00 Mostly Cloudy BKN029 BKN036 80.6 69.8 70% 84 29.76 0.0
16 16:55 W 10 G 21 10.00 Partly Cloudy SCT027 82.4 71.6 70% 87 29.75 0.0 0.01
16 16:35 W 16 G 22 10.00 Partly Cloudy SCT027 SCT032 82.4 71.6 70% 87 29.75 0.0
16 16:15 W 9 G 18 10.00 Partly Cloudy SCT023 SCT030 82.4 71.6 70% 87 29.75 0.0
16 15:55 SW 10 10.00 Mostly Cloudy BKN021 BKN027 80.6 71.6 74% 85 29.75 0.0 0.01
16 15:35 W 14 10.00 Mostly Cloudy BKN019 BKN095 80.6 71.6 74% 85 29.74 0.0
16 15:15 SW 10 10.00 Mostly Cloudy FEW017 SCT031 BKN095 80.6 71.6 74% 85 29.75 0.0
16 14:55 W 8 10.00 Overcast SCT014 BKN029 OVC095 77 71.6 83% 78 29.76 0.0
16 14:35 W 9 7.00 Overcast OVC013 73.4 71.6 94% 29.77 0.0
16 14:15 W 7 4.00 Fog/Mist OVC013 73.4 71.6 94% 29.77 0.0
16 13:55 W 9 4.00 Fog/Mist OVC013 73.4 69.8 78.1 71.1 89% 29.77 0.0 0.01
16 13:35 W 13 10.00 Overcast OVC013 75.2 69.8 83% 75 29.77 0.0
16 13:15 W 10 10.00 Overcast OVC013 75.2 69.8 83% 75 29.76 0.0
16 12:55 W 12 10.00 Overcast OVC015 75.2 69.8 83% 75 29.76 0.0 0.01
16 12:35 SW 14 G 18 10.00 Overcast OVC017 75.2 69.8 83% 75 29.76 0.0
16 12:15 SW 12 10.00 Overcast OVC017 75.2 69.8 83% 75 29.75 0.0
16 11:55 W 15 G 18 10.00 Overcast OVC019 75.2 69.8 83% 75 29.75 0.0
16 11:35 W 14 G 18 10.00 Overcast OVC021 77 69.8 79% 79 29.74 0.0
16 11:15 W 15 G 20 10.00 Mostly Cloudy BKN021 BKN095 77 69.8 79% 79 29.74 0.0
16 10:55 W 17 G 23 10.00 A Few Clouds FEW019 77 69.8 79% 79 29.73 0.0 0.01
16 10:35 W 17 G 21 10.00 Fair CLR 77 69.8 79% 79 29.73 0.0
16 10:15 SW 12 10.00 Partly Cloudy SCT050 75.2 69.8 83% 75 29.72 0.0
16 09:55 SW 13 10.00 Overcast OVC055 75.2 68 78% 76 29.72 0.0 0.01
16 09:35 W 12 10.00 Overcast OVC055 75.2 68 78% 76 29.72 0.0
16 09:15 SW 10 10.00 Overcast BKN065 OVC070 73.4 68 83% 29.72 0.0
16 08:55 W 10 10.00 Mostly Cloudy BKN060 BKN080 73.4 68 83% 29.72 0.0 0.02
16 08:35 W 9 10.00 Mostly Cloudy BKN080 73.4 69.8 89% 29.71 0.0
16 08:15 W 8 10.00 Partly Cloudy SCT070 73.4 69.8 89% 29.71 0.0
16 07:55 W 8 10.00 Fair CLR 71.6 68 75.9 68 88% 29.7 0.0 0.01
16 07:35 W 7 10.00 Fair CLR 69.8 68 94% 29.7 0.0
16 07:15 W 3 10.00 Fair CLR 68 68 100% 29.69 0.0
16 06:55 W 5 10.00 Fair CLR 68 66.2 94% 29.68 0.0 0.02
16 06:35 NW 1 10.00 Fair CLR 68 66.2 94% 29.67 0.0
16 06:15 W 5 8.00 Light Rain FEW075 SCT110 68 68 100% 29.68 0.0
16 05:55 W 3 6.00 Light Rain Fog/Mist FEW075 BKN100 69.8 68 94% 29.67 0.0 0.03
16 05:35 SW 2 6.00 Light Rain Fog/Mist BKN090 OVC110 69.8 66.2 88% 29.66 0.0
16 05:15 NW 1 3.00 Light Rain Fog/Mist BKN070 OVC080 69.8 66.2 88% 29.66 0.0
16 04:55 W 5 8.00 Light Rain OVC070 69.8 68 94% 29.68 0.0 0.04
16 04:35 N 12 7.00 Light Rain SCT080 OVC090 71.6 68 88% 29.66 0.0
16 04:15 N 5 5.00 Light Rain Fog/Mist FEW004 FEW016 OVC100 73.4 73.4 100% 29.68 0.0
16 03:55 N 5 5.00 Light Rain Fog/Mist FEW026 OVC100 73.4 73.4 100% 29.68 0.0 0.04
16 03:35 NW 8 4.00 Light Rain Fog/Mist SCT028 SCT060 OVC110 73.4 73.4 100% 29.67 0.0
16 03:15 W 6 9.00 Light Rain BKN110 75.2 73.4 94% 74 29.66 0.0
16 02:55 W 5 10.00 Light Rain BKN120 75.2 73.4 94% 74 29.65 0.0 0.01
16 02:35 SW 9 10.00 Light Rain SCT110 75.2 73.4 94% 74 29.66 0.0
16 02:15 S 10 10.00 Light Rain BKN100 75.2 71.6 89% 75 29.66 0.0
16 01:55 SW 8 10.00 Light Rain BKN100 75.2 71.6 82.8 75.6 89% 75 29.67 0.0
16 01:35 S 9 10.00 Light Rain BKN110 75.2 71.6 89% 75 29.68 0.0
16 01:15 SW 10 10.00 Light Rain SCT100 BKN120 77 71.6 83% 78 29.7 0.0
16 00:55 SW 10 10.00 Light Rain FEW120 77 71.6 83% 78 29.7 0.0
16 00:35 SW 9 10.00 Fair CLR 77 71.6 83% 78 29.71 0.0
16 00:15 S 6 10.00 Fair CLR 77 71.6 83% 78 29.71 0.0
15 23:55 S 7 10.00 Fair CLR 77 71.6 83% 78 29.7 0.0
15 23:35 S 8 10.00 Fair CLR 77 71.6 83% 78 29.7 0.0
15 23:15 S 8 10.00 Fair CLR 77 73.4 89% 78 29.7 0.0
15 22:55 S 3 10.00 Fair CLR 77 73.4 89% 78 29.71 0.0
15 22:35 S 7 10.00 Fair CLR 77 73.4 89% 78 29.72 0.0
15 22:15 SW 5 10.00 Fair CLR 77 73.4 89% 78 29.73 0.0
15 21:35 SW 6 10.00 Fair CLR 78.8 73.4 84% 82 29.72 0.0
15 21:15 SW 7 10.00 Fair CLR 78.8 73.4 84% 82 29.73 0.0
15 20:55 SW 7 10.00 Fair CLR 80.6 73.4 79% 85 29.72 0.0
15 20:35 SW 8 10.00 Fair CLR 80.6 73.4 79% 85 29.72 0.0
15 20:15 SW 9 10.00 Fair CLR 82.4 73.4 74% 88 29.72 0.0
15 19:55 SW 10 10.00 Fair CLR 82.4 73.4 85.5 80.8 74% 88 29.72 0.0 0.01
15 19:35 SW 10 10.00 Fair CLR 82.4 73.4 74% 88 29.73 0.0
15 19:15 SW 9 10.00 A Few Clouds FEW032 FEW038 84.2 73.4 70% 91 29.75 0.0
15 18:55 SW 12 10.00 Partly Cloudy SCT030 84.2 73.4 70% 91 29.75 0.0
15 18:35 SW 13 10.00 Fair CLR 84.2 73.4 70% 91 29.76 0.0
15 18:15 SW 10 10.00 Fair CLR 84.2 73.4 70% 91 29.76 0.0
15 17:55 SW 12 10.00 Fair CLR 84.2 71.6 66% 90 29.76 0.0 0.01
15 17:35 SW 14 10.00 Fair CLR 84.2 71.6 66% 90 29.77 0.0
15 17:15 SW 14 10.00 Fair CLR 84.2 71.6 66% 90 29.77 0.0
15 16:55 SW 12 G 17 10.00 A Few Clouds FEW033 84.2 73.4 70% 91 29.77 0.0 0.01
15 16:35 SW 13 10.00 A Few Clouds FEW033 84.2 71.6 66% 90 29.78 0.0
15 16:15 SW 15 G 20 10.00 A Few Clouds FEW031 84.2 71.6 66% 90 29.79 0.0
15 15:55 SW 12 10.00 Partly Cloudy SCT031 84.2 71.6 66% 90 29.79 0.0 0.01
15 15:35 SW 14 G 17 10.00 Partly Cloudy SCT031 84.2 71.6 66% 90 29.8 0.0
15 15:15 SW 13 10.00 A Few Clouds FEW028 84.2 71.6 66% 90 29.81 0.0
15 14:55 SW 12 10.00 Fair CLR 82.4 71.6 70% 87 29.81 0.0 0.02
15 14:35 SW 10 10.00 A Few Clouds FEW029 82.4 71.6 70% 87 29.81 0.0
15 14:15 SW 12 G 17 10.00 Fair CLR 82.4 69.8 66% 86 29.82 0.0
15 13:55 SW 12 10.00 Fair CLR 80.6 69.8 80.8 67.5 70% 84 29.83 0.0 0.01
15 13:35 SW 14 G 18 10.00 Fair CLR 80.6 69.8 70% 84 29.84 0.0
15 13:15 SW 9 10.00 Fair CLR 80.6 69.8 70% 84 29.84 0.0
15 12:55 SW 8 10.00 Fair CLR 78.8 69.8 74% 81 29.83 0.0 0.02
15 12:35 SW 8 10.00 A Few Clouds FEW022 78.8 69.8 74% 81 29.84 0.0
15 12:15 SW 10 10.00 A Few Clouds FEW020 77 68 74% 79 29.83 0.0
15 11:55 SW 9 10.00 A Few Clouds FEW017 77 69.8 79% 79 29.84 0.0 0.02
15 11:35 SW 12 10.00 A Few Clouds FEW012 77 68 74% 79 29.84 0.0
15 11:15 W 9 10.00 Partly Cloudy SCT012 75.2 69.8 83% 75 29.84 0.0
15 10:55 SW 8 10.00 Fair CLR 73.4 69.8 89% 29.83 0.0 0.02
15 10:35 SW 9 10.00 A Few Clouds FEW095 FEW120 71.6 69.8 94% 29.83 0.0
15 10:15 S 7 10.00 Mostly Cloudy SCT080 BKN100 BKN120 71.6 68 88% 29.82 0.0
15 09:55 SW 7 10.00 Overcast FEW047 BKN055 OVC075 69.8 68 94% 29.83 0.0 0.03
15 09:35 SW 7 10.00 Light Rain SCT039 BKN048 OVC070 69.8 68 94% 29.84 0.0
15 09:15 W 7 10.00 Light Rain SCT060 BKN070 OVC095 69.8 68 94% 29.85 0.0
15 08:55 SW 8 6.00 Light Rain Fog/Mist SCT060 BKN070 OVC085 68 66.2 94% 29.84 0.0 0.04
15 08:35 S 9 5.00 Light Rain Fog/Mist FEW030 SCT047 OVC070 68 66.2 94% 29.84 0.0
15 08:15 SW 9 7.00 Light Rain Fog/Mist SCT031 SCT049 OVC070 68 66.2 94% 29.85 0.0
15 07:55 SW 10 7.00 Light Rain SCT070 BKN080 OVC100 68 66.2 73.2 68 94% 29.85 0.0 0.05
15 07:35 E 6 5.00 Light Rain Fog/Mist FEW080 OVC100 68 66.2 94% 29.81 0.0
15 07:15 S 9 10.00 Light Rain FEW021 SCT080 OVC100 68 66.2 94% 29.83 0.0
15 06:55 Vrbl 3 10.00 Partly Cloudy SCT110 69.8 68 94% 29.8 0.0 0.14
15 06:35 NE 6 10.00 A Few Clouds FEW110 68 66.2 94% 29.79 0.0
15 06:15 N 3 10.00 Rain OVC110 69.8 66.2 88% 29.79 0.0
15 05:55 N 14 10.00 Rain FEW080 BKN110 68 64.4 88% 29.77 0.0 0.33
15 05:35 W 9 G 36 3.00 Heavy Rain Fog/Mist FEW013 SCT045 SCT050 68 64.4 88% 29.82 0.0
15 05:15 SW 17 G 33 7.00 Light Rain Fog/Mist BKN013 BKN019 OVC045 69.8 68 94% 29.85 0.0
15 04:55 SW 7 10.00 Overcast BKN036 BKN044 OVC050 73.4 69.8 89% 29.83 0.0
15 04:35 W 3 10.00 Overcast BKN036 OVC042 71.6 69.8 94% 29.82 0.0
15 04:15 Calm 10.00 Overcast SCT034 OVC060 71.6 69.8 94% 29.82 0.0
15 03:55 S 2 10.00 Partly Cloudy SCT060 71.6 69.8 94% 29.81 0.0
15 03:35 S 6 10.00 Fair CLR 71.6 69.8 94% 29.8 0.0
15 03:15 SE 5 10.00 Fair CLR 71.6 69.8 94% 29.79 0.0
Date Time (edt) Wind (mph) Vis. (mi.) Weather Sky Cond. Air Dwpt Max. Min. Relative Humidity Wind Chill (°F) Heat Index (°F) altimeter (in) sea level (mb) 1 hr 3 hr 6 hr
6 hour
Temperature (ºF) Pressure Precipitation (in)